Weather reports worldwide

Advertisment
Kleine Brogel, Belgium (6479): temperature & dewpoint: 11.07.2018 15:00:00 - 17.07.2018 15:00:00 (CEST)Kleine Brogel, Belgium (6479): wind speed & gusts: 11.07.2018 15:00:00 - 17.07.2018 15:00:00 (CEST)Kleine Brogel, Belgium (6479): wind direction: 11.07.2018 15:00:00 - 17.07.2018 15:00:00 (CEST)Kleine Brogel, Belgium (6479): reduced air pressure: 11.07.2018 15:00:00 - 17.07.2018 15:00:00 (CEST)Kleine Brogel, Belgium (6479): visibility: 11.07.2018 15:00:00 - 17.07.2018 15:00:00 (CEST)
Date & Time tt [°C] td [°C] ff [km/h] ff [kn] fx [km/h] fx [kn] dd ppp [hPa] vv [km]
17.07.2018 15:00:00 28,0 13,0 18 10 - - WSW - 10
17.07.2018 14:00:00 - - - - - - - - -
17.07.2018 13:00:00 - - - - - - - - -
17.07.2018 12:00:00 - - - - - - - - -
17.07.2018 11:00:00 - - - - - - - - -
17.07.2018 10:00:00 24,5 10,9 14 8 22 12 WSW 1015,1 20
17.07.2018 09:00:00 22,1 10,8 14 8 22 12 WSW 1015,0 20
17.07.2018 08:00:00 20,0 12,2 11 6 - - WSW 1014,7 20
17.07.2018 07:00:00 17,7 13,6 7 4 14 8 SW 1014,5 20
17.07.2018 06:00:00 18,2 13,8 8 4 11 6 WSW 1014,1 10
17.07.2018 05:00:00 18,2 13,6 11 6 - - SW 1013,8 20
17.07.2018 04:00:00 17,6 13,5 7 4 25 14 SW 1013,8 20
17.07.2018 03:00:00 17,7 14,6 4 2 4 2 N 1013,7 19
17.07.2018 02:00:00 18,8 14,4 4 2 - - N 1014,0 20
17.07.2018 01:00:00 21,5 11,8 4 2 11 6 N 1013,8 20
17.07.2018 00:00:00 21,6 12,3 4 2 11 6 N 1013,7 20
16.07.2018 23:00:00 22,1 12,6 7 4 - - WNW 1013,5 20
16.07.2018 22:00:00 23,1 12,1 11 6 29 16 WNW 1013,2 20
16.07.2018 21:00:00 25,5 8,0 4 2 14 8 N 1012,3 20
16.07.2018 20:00:00 27,8 7,0 7 4 - - NNE 1011,8 20
16.07.2018 19:00:00 29,2 6,4 11 6 25 14 ENE 1011,5 20
16.07.2018 18:00:00 30,2 7,1 7 4 22 12 NNE 1011,7 20
16.07.2018 17:00:00 30,8 6,6 11 6 - - NNW 1011,8 20
16.07.2018 16:00:00 29,6 7,2 4 2 29 16 N 1012,2 20
16.07.2018 15:00:00 30,8 7,0 15 8 29 16 NE 1012,6 10
16.07.2018 14:00:00 29,9 7,1 14 8 - - ENE 1013,3 20
16.07.2018 13:00:00 29,5 7,2 11 6 11 6 ENE 1013,6 20
16.07.2018 12:00:00 27,5 8,4 11 6 18 10 E 1013,7 20
16.07.2018 11:00:00 27,6 8,4 7 4 - - NE 1014,1 20
16.07.2018 10:00:00 25,3 9,5 4 2 7 4 N 1014,2 20
16.07.2018 09:00:00 22,5 10,1 7 4 11 6 ENE 1014,3 20
16.07.2018 08:00:00 18,4 10,0 4 2 - - N 1014,6 20
16.07.2018 07:00:00 14,0 9,1 4 2 0 0 N 1014,7 20
16.07.2018 06:00:00 12,2 8,6 0 0 0 0 N 1014,8 20
16.07.2018 05:00:00 13,0 8,9 4 2 - - N 1014,7 20
16.07.2018 04:00:00 14,1 8,7 0 0 0 0 N 1014,8 20
16.07.2018 03:00:00 14,7 8,5 4 2 4 2 N 1015,2 20
16.07.2018 02:00:00 15,3 8,5 4 2 - - N 1015,3 20
16.07.2018 01:00:00 17,0 8,9 4 2 0 0 N 1015,2 20
16.07.2018 00:00:00 18,2 8,7 4 2 4 2 N 1015,3 20
15.07.2018 23:00:00 20,0 8,3 4 2 - - N 1015,3 20
15.07.2018 22:00:00 22,8 8,1 4 2 11 6 N 1015,0 20
15.07.2018 21:00:00 25,3 7,6 7 4 18 10 NE 1014,6 20
15.07.2018 20:00:00 27,1 6,7 11 6 - - NE 1014,2 20
15.07.2018 19:00:00 28,4 7,4 11 6 25 14 NNE 1014,3 20
15.07.2018 18:00:00 29,0 7,9 11 6 22 12 NE 1014,5 20
15.07.2018 17:00:00 29,3 7,9 11 6 - - NE 1015,0 20
15.07.2018 16:00:00 29,8 7,1 11 6 25 14 NE 1015,2 20
15.07.2018 15:00:00 28,8 7,3 7 4 25 14 E 1015,8 20
15.07.2018 14:00:00 28,6 7,5 7 4 - - ENE 1016,6 20
15.07.2018 13:00:00 27,3 9,7 14 8 25 14 NE 1017,1 20
15.07.2018 12:00:00 26,4 10,0 11 6 22 12 NE 1017,5 20
15.07.2018 11:00:00 24,4 10,0 11 6 - - NE 1017,8 20
15.07.2018 10:00:00 23,4 12,1 7 4 14 8 NE 1018,0 20
15.07.2018 09:00:00 21,1 12,0 7 4 11 6 ENE 1018,2 20
15.07.2018 08:00:00 17,7 11,3 7 4 - - N 1018,2 20
15.07.2018 07:00:00 13,0 10,3 4 2 0 0 N 1018,2 20
15.07.2018 06:00:00 11,3 9,4 0 0 4 2 N 1018,3 20
15.07.2018 05:00:00 12,5 10,2 4 2 - - N 1018,6 20
15.07.2018 04:00:00 12,8 9,9 4 2 4 2 N 1018,6 20
15.07.2018 03:00:00 13,8 10,1 4 2 0 0 N 1018,8 20
15.07.2018 02:00:00 15,3 10,3 4 2 - - N 1019,0 20
15.07.2018 01:00:00 16,3 10,2 4 2 4 2 N 1019,1 20
15.07.2018 00:00:00 17,7 10,6 4 2 7 4 N 1019,0 20
14.07.2018 23:00:00 20,0 10,4 4 2 - - N 1018,7 20
14.07.2018 22:00:00 21,3 9,7 4 2 11 6 N 1018,5 20
14.07.2018 21:00:00 24,1 9,0 7 4 18 10 NNE 1018,2 20
14.07.2018 20:00:00 25,5 9,4 11 6 - - NE 1018,1 20
14.07.2018 19:00:00 26,6 9,6 11 6 25 14 N 1018,2 20
14.07.2018 18:00:00 27,8 9,7 7 4 22 12 N 1018,3 20
14.07.2018 17:00:00 27,3 9,2 11 6 - - NW 1018,6 20
14.07.2018 16:00:00 27,1 9,1 4 2 22 12 N 1019,0 20
14.07.2018 15:00:00 27,8 10,7 7 4 22 12 NNE 1019,6 20
14.07.2018 14:00:00 26,2 12,1 7 4 - - NNE 1020,0 20
14.07.2018 13:00:00 24,7 12,7 7 4 18 10 N 1020,3 20
14.07.2018 12:00:00 24,5 13,5 7 4 18 10 NE 1020,8 20
14.07.2018 11:00:00 22,8 13,8 7 4 - - NNE 1021,3 20
14.07.2018 10:00:00 20,3 13,7 7 4 14 8 NE 1021,6 19
14.07.2018 09:00:00 18,3 13,3 7 4 11 6 N 1021,5 17
14.07.2018 08:00:00 16,3 12,9 7 4 - - N 1021,3 13
14.07.2018 07:00:00 14,3 12,7 4 2 7 4 N 1021,1 15
14.07.2018 06:00:00 12,8 11,7 4 2 7 4 N 1020,8 13
14.07.2018 05:00:00 14,0 12,5 4 2 - - N 1021,1 14
14.07.2018 04:00:00 15,0 12,7 4 2 7 4 N 1021,1 15
14.07.2018 03:00:00 15,8 12,9 4 2 7 4 N 1021,0 20
14.07.2018 02:00:00 16,7 12,9 4 2 - - N 1021,1 20
14.07.2018 01:00:00 17,7 12,7 4 2 11 6 N 1021,1 20
14.07.2018 00:00:00 18,6 12,7 4 2 11 6 N 1020,8 20
13.07.2018 23:00:00 20,1 12,6 7 4 - - NNE 1020,5 20
13.07.2018 22:00:00 21,2 11,9 4 2 14 8 N 1020,1 20
13.07.2018 21:00:00 23,8 11,4 7 4 14 8 NNW 1019,7 20
13.07.2018 20:00:00 24,8 10,8 7 4 - - N 1019,6 20
13.07.2018 19:00:00 25,8 9,8 4 2 18 10 N 1019,7 20
13.07.2018 18:00:00 27,6 9,2 7 4 22 12 N 1020,0 20
13.07.2018 17:00:00 26,8 10,1 7 4 - - N 1020,1 20
13.07.2018 16:00:00 27,4 9,0 11 6 22 12 N 1020,3 20
13.07.2018 15:00:00 27,5 9,5 7 4 22 12 NW 1020,7 20
13.07.2018 14:00:00 26,1 10,4 11 6 - - N 1021,0 20
13.07.2018 13:00:00 24,3 11,6 7 4 18 10 N 1021,6 19
13.07.2018 12:00:00 23,1 11,4 7 4 18 10 NE 1021,7 19
13.07.2018 11:00:00 21,5 12,2 7 4 - - ENE 1021,7 19
13.07.2018 10:00:00 19,8 13,0 4 2 11 6 N 1022,1 19
13.07.2018 09:00:00 16,9 13,8 7 4 11 6 NE 1022,0 12
13.07.2018 08:00:00 15,3 13,7 4 2 - - N 1021,8 5
13.07.2018 07:00:00 13,6 12,7 4 2 4 2 - 1021,8 5
13.07.2018 06:00:00 11,9 11,6 4 2 4 2 N 1021,7 9
13.07.2018 05:00:00 11,9 11,1 4 2 - - N 1021,6 0,1
13.07.2018 04:00:00 12,8 11,7 2 1 7 4 - 1021,6 1,2
13.07.2018 03:00:00 14,3 12,8 4 2 7 4 N 1021,3 13
13.07.2018 02:00:00 15,1 13,0 4 2 - - N 1021,2 13
13.07.2018 01:00:00 16,5 13,2 7 4 18 10 NNW 1021,2 17
13.07.2018 00:00:00 17,9 13,2 7 4 18 10 NNW 1020,8 20
12.07.2018 23:00:00 19,3 13,2 7 4 - - NNW 1020,6 20
12.07.2018 22:00:00 21,1 12,8 11 6 25 14 NNW 1020,0 20
12.07.2018 21:00:00 23,1 13,5 11 6 25 14 NNW 1019,2 20
12.07.2018 20:00:00 24,5 12,7 11 6 - - NNW 1018,7 20
12.07.2018 19:00:00 26,5 12,3 14 8 25 14 N 1018,3 20
12.07.2018 18:00:00 26,8 11,0 14 8 25 14 N 1018,5 20
12.07.2018 17:00:00 25,8 10,9 7 4 - - NNE 1018,7 20
12.07.2018 16:00:00 27,0 11,7 7 4 29 16 N 1018,8 20
12.07.2018 15:00:00 26,3 12,1 14 8 29 16 N 1019,1 20
12.07.2018 14:00:00 25,7 12,7 11 6 - - NNW 1019,2 20
12.07.2018 13:00:00 25,4 12,6 11 6 22 12 N 1019,5 20
12.07.2018 12:00:00 23,1 12,7 7 4 18 10 NNW 1019,7 20
12.07.2018 11:00:00 21,6 13,5 7 4 - - NW 1020,0 11
12.07.2018 10:00:00 18,6 13,6 4 2 14 8 N 1020,1 11
12.07.2018 09:00:00 17,1 13,9 4 2 14 8 N 1019,8 6
12.07.2018 08:00:00 15,8 14,1 11 6 - - N 1019,2 4,5
12.07.2018 07:00:00 15,6 14,8 7 4 11 6 N 1019,0 2,5
12.07.2018 06:00:00 14,0 13,5 4 2 7 4 N 1018,7 3,5
12.07.2018 05:00:00 14,9 13,8 4 2 - - N 1018,6 4,6
12.07.2018 04:00:00 15,7 14,2 8 4 14 8 NW 1018,7 8
12.07.2018 03:00:00 16,5 14,2 7 4 14 8 W 1018,7 13
12.07.2018 02:00:00 16,8 14,1 7 4 - - WNW 1018,7 15
12.07.2018 01:00:00 17,6 13,7 7 4 22 12 NW 1018,7 17
12.07.2018 00:00:00 18,5 13,2 11 6 22 12 NNW 1018,7 19
11.07.2018 23:00:00 19,2 12,6 11 6 - - NW 1018,5 20
11.07.2018 22:00:00 19,8 12,1 11 6 22 12 NW 1018,2 20
11.07.2018 21:00:00 20,7 11,8 11 6 25 14 NW 1017,8 20
11.07.2018 20:00:00 21,6 12,3 11 6 - - NNW 1017,7 20
11.07.2018 19:00:00 21,2 12,1 11 6 29 16 NW 1017,6 20
11.07.2018 18:00:00 22,2 12,2 18 10 32 18 NNW 1017,6 20
11.07.2018 17:00:00 23,0 11,3 14 8 - - NNW 1017,6 20
11.07.2018 16:00:00 24,0 11,1 14 8 25 14 NW 1017,8 20
11.07.2018 15:00:00 22,8 10,1 14 8 29 16 NNW 1018,0 20

tt = temperature
td = dewpoint
ff = wind speed
fx = gusts
dd = wind direction
ppp = reduced air pressure
vv = visibility

Next stations